• In Romania
  • List of Countries
  • For 7 days
  • Water Temperature
  • Satellite Maps
  • Weather Map
  • Weather Widgets
  • user-avatar
    Login

    Hourly Weather Salta

    Today, 30 April, Sunday

    Time Temperature Precipitation Wind Pressure Humidity
    00:00 +9°C° 0 mm 0 mps 652 mmHg 80%
    01:00 +10°C° 0 mm 1 mps 652 mmHg 80%
    02:00 +10°C° 0 mm 1 mps 652 mmHg 80%
    03:00 +10°C° 0 mm 1 mps 652 mmHg 80%
    04:00 +9°C° 0 mm 1 mps 651 mmHg 80%
    05:00 +9°C° 0 mm 1 mps 651 mmHg 79%
    06:00 +11°C° 0 mm 1 mps 652 mmHg 72%
    07:00 +13°C° 0 mm 1 mps 653 mmHg 65%
    08:00 +15°C° 0 mm 1 mps 654 mmHg 59%
    09:00 +18°C° 0 mm 1 mps 654 mmHg 51%
    10:00 +19°C° 0 mm 2 mps 655 mmHg 44%
    11:00 +21°C° 0 mm 2 mps 655 mmHg 37%
    12:00 +22°C° 0 mm 3 mps 654 mmHg 36%
    13:00 +22°C° 0 mm 3 mps 654 mmHg 36%
    14:00 +24°C° 0 mm 3 mps 653 mmHg 36%
    15:00 +22°C° 0 mm 3 mps 653 mmHg 40%
    16:00 +21°C° 0 mm 3 mps 653 mmHg 45%
    17:00 +20°C° 0 mm 2 mps 652 mmHg 50%
    18:00 +18°C° 0 mm 2 mps 652 mmHg 60%
    19:00 +15°C° 0 mm 1 mps 652 mmHg 70%
    20:00 +13°C° 0 mm 1 mps 652 mmHg 80%
    21:00 +13°C° 0 mm 1 mps 652 mmHg 80%
    22:00 +12°C° 0 mm 1 mps 652 mmHg 81%
    23:00 +12°C° 0 mm 1 mps 652 mmHg 82%

    Tomorrow, 1 May, Monday

    Time Temperature Precipitation Wind Pressure Humidity
    00:00 +11°C° 0 mm 1 mps 652 mmHg 81%
    01:00 +11°C° 0 mm 1 mps 651 mmHg 80%
    02:00 +10°C° 0 mm 1 mps 651 mmHg 79%
    03:00 +10°C° 0 mm 1 mps 651 mmHg 77%
    04:00 +10°C° 0 mm 1 mps 651 mmHg 76%
    05:00 +10°C° 0 mm 1 mps 651 mmHg 74%
    06:00 +12°C° 0 mm 1 mps 652 mmHg 70%
    07:00 +13°C° 0 mm 1 mps 653 mmHg 65%
    08:00 +15°C° 0 mm 1 mps 653 mmHg 60%
    09:00 +18°C° 0 mm 1 mps 654 mmHg 52%
    10:00 +20°C° 0 mm 2 mps 654 mmHg 44%
    11:00 +23°C° 0 mm 2 mps 655 mmHg 37%
    12:00 +24°C° 0 mm 2 mps 654 mmHg 35%
    13:00 +24°C° 0 mm 3 mps 653 mmHg 34%
    14:00 +25°C° 0 mm 3 mps 652 mmHg 33%
    15:00 +24°C° 0 mm 3 mps 652 mmHg 37%
    16:00 +24°C° 0 mm 3 mps 652 mmHg 41%
    17:00 +23°C° 0 mm 2 mps 651 mmHg 46%
    18:00 +19°C° 0 mm 2 mps 651 mmHg 56%
    19:00 +17°C° 0 mm 2 mps 651 mmHg 67%
    20:00 +14°C° 0 mm 2 mps 651 mmHg 78%
    21:00 +14°C° 0 mm 1 mps 651 mmHg 78%
    22:00 +13°C° 0 mm 1 mps 650 mmHg 77%
    23:00 +13°C° 0 mm 1 mps 650 mmHg 77%

    Day after tomorrow, 2 May, Tuesday

    Time Temperature Precipitation Wind Pressure Humidity
    00:00 +13°C° 0 mm 1 mps 650 mmHg 75%
    01:00 +13°C° 0 mm 2 mps 650 mmHg 73%
    02:00 +13°C° 0 mm 2 mps 650 mmHg 71%
    03:00 +13°C° 0 mm 2 mps 650 mmHg 70%
    04:00 +13°C° 0 mm 2 mps 650 mmHg 69%
    05:00 +13°C° 0 mm 2 mps 649 mmHg 68%
    06:00 +14°C° 0 mm 2 mps 650 mmHg 65%
    07:00 +16°C° 0 mm 2 mps 651 mmHg 63%
    08:00 +17°C° 0 mm 2 mps 651 mmHg 60%
    09:00 +19°C° 0 mm 2 mps 651 mmHg 57%
    10:00 +20°C° 0 mm 2 mps 651 mmHg 54%
    11:00 +22°C° 0 mm 3 mps 651 mmHg 51%
    12:00 +24°C° 0 mm 3 mps 651 mmHg 49%
    13:00 +25°C° 0 mm 3 mps 650 mmHg 47%
    14:00 +25°C° 0 mm 3 mps 649 mmHg 46%
    15:00 +25°C° 0 mm 2 mps 649 mmHg 50%
    16:00 +24°C° 0 mm 2 mps 649 mmHg 55%
    17:00 +23°C° 0 mm 2 mps 649 mmHg 59%
    18:00 +21°C° 0 mm 1 mps 649 mmHg 68%
    19:00 +18°C° 0 mm 1 mps 649 mmHg 77%
    20:00 +15°C° 0 mm 1 mps 649 mmHg 86%
    21:00 +15°C° 0 mm 1 mps 650 mmHg 86%
    22:00 +14°C° 0 mm 1 mps 650 mmHg 86%
    23:00 +14°C° 0 mm 1 mps 650 mmHg 86%

    3 May, Wednesday

    Time Temperature Precipitation Wind Pressure Humidity
    00:00 +14°C° 0 mm 1 mps 650 mmHg 86%
    01:00 +14°C° 0 mm 1 mps 650 mmHg 86%
    02:00 +14°C° 0 mm 1 mps 650 mmHg 86%
    03:00 +14°C° 0 mm 1 mps 650 mmHg 85%
    04:00 +14°C° 0 mm 1 mps 651 mmHg 84%
    05:00 +15°C° 0 mm 2 mps 651 mmHg 84%
    06:00 +16°C° 0 mm 1 mps 652 mmHg 78%
    07:00 +18°C° 0 mm 1 mps 653 mmHg 73%
    08:00 +19°C° 0 mm 1 mps 654 mmHg 67%
    09:00 +20°C° 0 mm 2 mps 654 mmHg 61%
    10:00 +23°C° 0 mm 2 mps 654 mmHg 55%
    11:00 +24°C° 0 mm 3 mps 655 mmHg 49%
    12:00 +25°C° 0.1 mm 3 mps 654 mmHg 50%
    13:00 +25°C° 0.1 mm 3 mps 653 mmHg 51%
    14:00 +25°C° 0.1 mm 3 mps 653 mmHg 51%
    15:00 +24°C° 0.3 mm 3 mps 652 mmHg 57%
    16:00 +22°C° 0.3 mm 3 mps 652 mmHg 62%
    17:00 +21°C° 0.3 mm 3 mps 652 mmHg 68%
    18:00 +20°C° 0.1 mm 2 mps 652 mmHg 76%
    19:00 +18°C° 0.1 mm 2 mps 652 mmHg 84%
    20:00 +16°C° 0.1 mm 1 mps 652 mmHg 92%
    21:00 +16°C° 0 mm 1 mps 652 mmHg 93%
    22:00 +15°C° 0 mm 1 mps 652 mmHg 93%
    23:00 +15°C° 0 mm 1 mps 652 mmHg 93%

    4 May, Thursday

    Time Temperature Precipitation Wind Pressure Humidity
    00:00 +14°C° 0 mm 1 mps 651 mmHg 92%
    01:00 +14°C° 0 mm 1 mps 651 mmHg 91%
    02:00 +13°C° 0 mm 1 mps 650 mmHg 90%
    03:00 +13°C° 0 mm 1 mps 650 mmHg 89%
    04:00 +13°C° 0 mm 1 mps 649 mmHg 87%
    05:00 +13°C° 0 mm 1 mps 649 mmHg 85%
    06:00 +14°C° 0 mm 1 mps 650 mmHg 80%
    07:00 +16°C° 0 mm 1 mps 651 mmHg 74%
    08:00 +18°C° 0 mm 1 mps 651 mmHg 69%
    09:00 +19°C° 0 mm 2 mps 651 mmHg 62%
    10:00 +21°C° 0 mm 2 mps 651 mmHg 56%
    11:00 +24°C° 0 mm 2 mps 651 mmHg 49%
    12:00 +24°C° 0 mm 3 mps 651 mmHg 48%
    13:00 +25°C° 0 mm 3 mps 650 mmHg 46%
    14:00 +26°C° 0 mm 3 mps 649 mmHg 45%
    15:00 +25°C° 0 mm 3 mps 649 mmHg 49%
    16:00 +24°C° 0 mm 2 mps 649 mmHg 53%
    17:00 +24°C° 0 mm 2 mps 648 mmHg 58%
    18:00 +20°C° 0 mm 2 mps 648 mmHg 67%
    19:00 +18°C° 0 mm 2 mps 649 mmHg 76%
    20:00 +16°C° 0 mm 1 mps 649 mmHg 85%
    21:00 +16°C° 0 mm 1 mps 649 mmHg 83%
    22:00 +15°C° 0 mm 1 mps 649 mmHg 82%
    23:00 +15°C° 0 mm 1 mps 649 mmHg 81%

    5 May, Friday

    Time Temperature Precipitation Wind Pressure Humidity
    00:00 +15°C° 0 mm 1 mps 649 mmHg 79%
    01:00 +15°C° 0 mm 1 mps 649 mmHg 77%
    02:00 +14°C° 0 mm 1 mps 649 mmHg 76%
    03:00 +14°C° 0 mm 1 mps 649 mmHg 75%
    04:00 +14°C° 0 mm 1 mps 649 mmHg 74%
    05:00 +14°C° 0 mm 1 mps 649 mmHg 73%
    06:00 +16°C° 0 mm 1 mps 649 mmHg 69%
    07:00 +18°C° 0 mm 1 mps 650 mmHg 66%
    08:00 +19°C° 0 mm 1 mps 651 mmHg 62%
    09:00 +21°C° 0 mm 1 mps 651 mmHg 57%
    10:00 +23°C° 0 mm 2 mps 651 mmHg 51%
    11:00 +25°C° 0 mm 2 mps 651 mmHg 45%
    12:00 +26°C° 0 mm 2 mps 651 mmHg 43%
    13:00 +27°C° 0 mm 3 mps 650 mmHg 41%
    14:00 +28°C° 0 mm 3 mps 649 mmHg 39%
    15:00 +27°C° 0 mm 3 mps 649 mmHg 43%
    16:00 +26°C° 0 mm 3 mps 649 mmHg 48%
    17:00 +25°C° 0 mm 3 mps 648 mmHg 52%
    18:00 +23°C° 0 mm 2 mps 648 mmHg 63%
    19:00 +20°C° 0 mm 2 mps 648 mmHg 74%
    20:00 +18°C° 0 mm 2 mps 648 mmHg 84%
    21:00 +17°C° 0 mm 2 mps 648 mmHg 83%
    22:00 +17°C° 0 mm 2 mps 648 mmHg 82%
    23:00 +18°C° 0 mm 1 mps 648 mmHg 81%
    Show more